Buffalo, SD

2:57 AM MDT on September 25, 2017 (GMT -0600)
Buffalo

Weather History for K2WX - February, 2013

Change the Weather History Date:

Friday, February 22, 2013

  Actual Average Record
Temperature  
Mean Temperature 29 °F 25 °F  
Max Temperature 42 °F 36 °F 66 °F (2002)
Min Temperature 15 °F 15 °F -8 °F (2015)
Degree Days  
Heating Degree Days 36 40  
Month to date heating degree days 792 927  
Since 1 July heating degree days 5125 5566  
Cooling Degree Days 0 0  
Month to date cooling degree days 0 0  
Year to date cooling degree days 0 0  
Moisture  
Dew Point 15 °F    
Average Humidity 61    
Maximum Humidity 92    
Minimum Humidity 30    
Precipitation  
Precipitation 0.01 in 0.01 in 0.67 in (2017)
Month to date precipitation 0.04 0.22  
Year to date precipitation 0.14 0.51  
Sea Level Pressure  
Sea Level Pressure 29.87 in    
Wind  
Wind Speed 7 mph (WSW)    
Max Wind Speed 21 mph    
Max Gust Speed 29 mph    
T = Trace of Precipitation, MM = Missing Value Source: NWS Daily Summary

Daily Weather History Graph

Daily Weather History Graph

Search for Another Location

Airport or City:

Trip Planner

Search our weather history database for the weather conditions in past years. The results will help you decide how hot, cold, wet, or windy it might be!

Date:

Astronomy

Feb. 22, 2013 Rise Set
Actual Time 6:44 AM MST 5:31 PM MST
Civil Twilight 6:14 AM MST 6:01 PM MST
Nautical Twilight 5:39 AM MST 6:36 PM MST
Astronomical Twilight 5:05 AM MST 7:10 PM MST
Moon 2:39 PM MST (2/22) 4:37 AM MST (2/22)
Length of Visible Light 11h 47m
Length of Day
10h 47m
Waxing Gibbous, 90% of the Moon is Illuminated
Feb 22
Waxing Gibbous
Feb 25
Full
Mar 4
Last Quarter
Mar 11
New
Mar 19
First Quarter

Hourly Weather History & Observations

Time (MST) Temp. Windchill Dew Point Humidity Pressure Visibility Wind Dir Wind Speed Gust Speed Precip Events Conditions
12:56 AM 17.1 °F 6.6 °F 15.1 °F 92% 29.97 in - SSE 8.1 mph - 0.01 in   Unknown
1:56 AM 17.1 °F 7.6 °F 15.1 °F 92% 29.96 in - South 6.9 mph - N/A   Unknown
2:56 AM 16.0 °F 6.3 °F 14.0 °F 92% 29.96 in - SSE 6.9 mph - N/A   Unknown
3:56 AM 16.0 °F 6.3 °F 12.9 °F 88% 29.96 in - South 6.9 mph - N/A   Unknown
4:56 AM 16.0 °F 8.8 °F 14.0 °F 92% 29.96 in - SW 4.6 mph - N/A   Unknown
5:56 AM 17.1 °F - 15.1 °F 92% 29.96 in - Calm Calm - N/A   Unknown
6:56 AM 16.0 °F 10.4 °F 14.0 °F 92% 29.97 in - WSW 3.5 mph - N/A   Unknown
7:56 AM 16.0 °F 7.4 °F 14.0 °F 92% 29.97 in - WSW 5.8 mph - N/A   Unknown
8:56 AM 21.9 °F 11.7 °F 19.9 °F 92% 29.95 in - WSW 9.2 mph - N/A   Unknown
9:56 AM 27.0 °F 20.5 °F 21.9 °F 81% 29.93 in - WSW 5.8 mph - N/A   Unknown
10:56 AM 33.1 °F 28.7 °F 23.0 °F 66% 29.92 in - West 4.6 mph - N/A   Unknown
11:56 AM 37.9 °F 29.6 °F 21.9 °F 53% 29.88 in - West 13.8 mph - N/A   Unknown
12:56 PM 37.9 °F 28.9 °F 12.9 °F 36% 29.85 in - WNW 16.1 mph 21.9 mph N/A   Unknown
1:42 PM 41.0 °F 32.5 °F 12.0 °F 31% 29.74 in - WNW 17.3 mph 20.7 mph N/A   Unknown
1:56 PM 39.9 °F 32.9 °F 12.0 °F 32% 29.83 in - WNW 11.5 mph 17.3 mph N/A   Unknown
2:56 PM 41.0 °F 32.8 °F 12.9 °F 32% 29.82 in - WNW 16.1 mph - N/A   Unknown
3:56 PM 39.9 °F 33.9 °F 12.0 °F 32% 29.81 in - WNW 9.2 mph - N/A   Unknown
4:56 PM 37.9 °F 30.9 °F 12.9 °F 36% 29.82 in - West 10.4 mph - N/A   Unknown
5:56 PM 30.9 °F 24.3 °F 12.9 °F 47% 29.83 in - WNW 6.9 mph - N/A   Unknown
6:56 PM 28.9 °F 23.9 °F 14.0 °F 54% 29.83 in - West 4.6 mph - N/A   Unknown
7:56 PM 28.9 °F 23.9 °F 15.1 °F 56% 29.82 in - West 4.6 mph - N/A   Unknown
8:56 PM 25.0 °F 19.3 °F 14.0 °F 63% 29.80 in - SW 4.6 mph - N/A   Unknown
9:56 PM 23.0 °F 15.8 °F 12.9 °F 65% 29.78 in - WSW 5.8 mph - N/A   Unknown
10:56 PM 23.0 °F - 12.9 °F 65% 29.75 in - Calm Calm - N/A   Unknown
11:56 PM 21.9 °F 17.2 °F 12.9 °F 68% 29.73 in - WSW 3.5 mph - N/A   Unknown